Retour au catalogue

COSMOS 977

ActifMilitaireLEO
NORAD 10584·PAYLOAD·🇷🇺 Russia

Lancé Jan 10, 1978 depuis Plesetsk Cosmodrome

Loading…

Prochains Passages (prochaines 24 heures)

TLE

FraisSource: Space-Track

Époque: Sep 14, 2026, 15:21 UTC

1 10584U 78005B   26257.63994785 -.00000025  00000-0 -52373-4 0  9994
2 10584  74.0295 219.1497 0041422 324.9684 208.0304 12.57991886222705

Suivez COSMOS 977 en temps réel avec AllMySat

Download on the App Store